Location: Izdebno
(52.6670°N, 16.2170°E)
Time: 09:58:37
(UTC+01:00)

Transit 2A - Pass Details

Date: 02 February 2023
Orbit: 591 x 964 km, 66.7° (Epoch: 21 March)

Event Time Altitude Azimuth Distance (km) Brightness Sun altitude
Rises 01:30:03 0° 320° (NW) 3,431 - -50.9°
Reaches altitude 10° 01:32:27 10° 320° (NW) 2,541 - -50.7°
Maximum altitude 01:38:27 89° 233° (SW) 935 - -50.2°
Drops below altitude 10° 01:44:48 10° 143° (SE) 2,686 - -49.6°
Sets 01:47:23 0° 143° (SE) 3,639 - -49.4°
